Regional Weather Roundup
Issued by NWS Goodland, KS

Home | Current Version | Previous Version | Graphics & Text | Print | Product List | Glossary On
Versions: 1 2 3 4 5 6 7 8 9 10 11 12 13 14 15 16 17 18 19 20 21 22 23 24 25 26 27 28 29 30 31 32 33 34 35 36 37 38 39 40 41 42 43 44 45 46 47 48 49 50
391
ASUS43 KGLD 300559
RWRGLD

GOODLAND FORECAST AREA HOURLY WEATHER ROUNDUP
NATIONAL WEATHER SERVICE GOODLAND KS
1200 AM MDT FRI SEP 30 2016

...OFFICIAL OBSERVATIONS...

CITY           SKY/WX    TMP DP  RH WIND       PRES   REMARKS
GOODLAND KS    CLEAR     50  39  66 S14       30.28F
HILL CITY KS   CLEAR     47  43  86 E5        30.32F
IMPERIAL NEB   CLEAR     52  42  69 SE12      30.29F
MCCOOK NEB     CLEAR     51  44  77 SE7       30.31F
AKRON CO       CLEAR     52  40  63 SE13      30.25F
BURLINGTON CO  CLEAR     53  40  61 S15       30.28F
LIMON CO       CLOUDY    50  40  68 SE8       30.29F
$$

...UNOFFICIAL OBSERVATIONS...

CITY           SKY/WX    TMP DP  RH WIND       PRES   REMARKS
COLBY KS       CLEAR     48  43  81 SE6       30.31F
LENORA KS        N/A     49  32  52 MISG        N/A
NORTON KS      CLEAR     50  43  76 SE7       30.31S
SHARON SPRINGS   N/A     50  41  70 SE9         N/A
KIT CARSON CO    N/A     55  40  57 MISG        N/A
$$




USA.gov is the U.S. government's official web portal to all federal, state and local government web resources and services.